EW4235 Weather Reports


Display with metric or nautical units.
time (UTC)temp
F
wind
direction
speed
MPH
gust
MPH
rain 1hr
in
rain 24hr
in
rain mn
in
humidity
%
barometer
mb
20180822015207 73 249 0.0 1.0 0.00 0.66 0.66 97 1011.4
20180822014706 73 249 0.0 0.0 0.00 0.66 0.66 97 1011.4
20180822014206 73 249 0.0 0.0 0.00 0.66 0.66 97 1011.2
20180822013706 73 249 0.0 0.0 0.00 0.66 0.66 97 1011.4
20180822013205 73 249 0.0 0.0 0.01 0.66 0.66 97 1011.6
20180822012707 73 249 0.0 0.0 0.01 0.66 0.66 97 1011.7
20180822012208 73 249 0.0 0.0 0.01 0.66 0.66 97 1011.7
20180822011705 73 249 0.0 0.0 0.02 0.66 0.66 97 1011.7
20180822011207 73 249 0.0 0.0 0.08 0.66 0.66 96 1011.7
20180822010705 73 249 0.0 1.0 0.09 0.66 0.66 96 1011.8
20180822010204 73 249 0.0 1.0 0.09 0.66 0.66 96 1011.7
20180822005704 73 249 0.0 1.0 0.09 0.66 0.66 96 1011.8
20180822005204 73 249 0.0 1.0 0.09 0.66 0.66 96 1011.8
20180822004703 73 249 0.0 1.0 0.09 0.66 0.66 96 1011.9
20180822004204 73 249 0.0 2.0 0.09 0.66 0.66 95 1011.9
20180822003705 74 249 0.0 2.0 0.09 0.66 0.66 95 1011.8
20180822003205 74 254 0.0 2.0 0.08 0.65 0.65 95 1011.6
20180822002705 74 153 1.0 2.0 0.08 0.65 0.65 94 1011.7
20180822002203 74 146 1.0 4.0 0.08 0.65 0.65 93 1012.0
20180822001702 75 232 1.0 4.0 0.07 0.64 0.64 93 1012.4
20180822001204 76 263 1.0 4.0 0.01 0.58 0.59 93 1012.3
20180822000705 76 265 0.0 3.0 0.00 0.57 0.57 93 1011.8
20180822000202 77 124 0.0 1.0 0.00 0.57 0.57 95 1011.4
20180821235704 77 124 0.0 1.0 0.00 0.57 0.57 95 1011.6
20180821235201 77 124 0.0 0.0 0.00 0.57 0.57 94 1011.8
20180821234702 77 124 0.0 1.0 0.00 0.57 0.57 94 1011.7
20180821234202 77 124 0.0 1.0 0.00 0.57 0.57 94 1011.6
20180821233702 77 124 0.0 1.0 0.00 0.57 0.57 94 1011.7
20180821233201 78 124 0.0 1.0 0.00 0.57 0.57 94 1011.5
20180821232701 78 124 0.0 1.0 0.00 0.57 0.57 94 1011.4
20180821232200 78 124 0.0 1.0 0.00 0.57 0.57 93 1011.4
20180821231700 78 124 0.0 0.0 0.00 0.57 0.57 93 1011.5
20180821231201 78 124 0.0 0.0 0.00 0.57 0.57 93 1011.4
20180821230700 78 124 0.0 0.0 0.00 0.57 0.57 93 1011.4
20180821230158 78 124 0.0 0.0 0.00 0.57 0.57 93 1011.4
20180821225659 78 124 0.0 0.0 0.00 0.57 0.57 92 1011.4
20180821225159 78 124 0.0 0.0 0.00 0.57 0.57 92 1011.2
20180821224659 78 124 0.0 0.0 0.00 0.57 0.57 92 1011.2
20180821224157 78 124 0.0 1.0 0.00 0.57 0.57 92 1011.3
20180821223656 78 124 0.0 1.0 0.00 0.57 0.57 92 1011.2
20180821223155 78 124 0.0 0.0 0.00 0.57 0.57 92 1011.3
20180821222657 78 124 0.0 1.0 0.00 0.57 0.57 92 1011.3
20180821222156 78 124 0.0 1.0 0.00 0.57 0.57 91 1011.2
20180821221656 78 124 0.0 0.0 0.00 0.57 0.57 91 1011.4
20180821221156 78 124 0.0 0.0 0.00 0.57 0.57 90 1011.3
20180821220655 79 124 0.0 0.0 0.00 0.57 0.57 90 1011.4
20180821220156 79 124 0.0 0.0 0.00 0.57 0.57 90 1011.4
20180821215657 79 124 0.0 1.0 0.00 0.57 0.57 89 1011.4
20180821215155 79 124 0.0 1.0 0.00 0.57 0.57 89 1011.3
20180821214654 79 326 0.0 4.0 0.00 0.57 0.57 90 1011.4
20180821214154 79 326 0.0 4.0 0.00 0.57 0.57 90 1011.5
20180821213655 79 115 0.0 1.0 0.00 0.57 0.57 91 1011.5
20180821213152 79 115 0.0 1.0 0.00 0.57 0.57 91 1011.4
20180821212651 78 139 0.0 2.0 0.00 0.57 0.57 92 1011.5
20180821212152 78 139 1.0 2.0 0.00 0.57 0.57 92 1011.4
20180821211652 78 82 1.0 2.0 0.00 0.57 0.57 92 1011.4
20180821211152 78 100 0.0 2.0 0.00 0.57 0.57 92 1011.6
20180821210650 78 108 0.0 3.0 0.00 0.57 0.57 93 1011.6
20180821210149 78 77 0.0 3.0 0.00 0.57 0.57 93 1011.6
20180821205648 77 94 0.0 2.0 0.00 0.57 0.57 93 1011.8
20180821205147 77 77 0.0 3.0 0.00 0.57 0.57 93 1011.9
20180821204645 77 75 0.0 3.0 0.00 0.57 0.57 93 1012.0
20180821204143 77 309 0.0 2.0 0.00 0.57 0.57 93 1012.0
20180821203645 77 109 0.0 2.0 0.00 0.57 0.57 93 1012.0
20180821203144 77 296 0.0 1.0 0.00 0.57 0.57 93 1012.1
20180821202644 77 140 0.0 2.0 0.00 0.57 0.57 93 1012.0
20180821202144 77 340 0.0 2.0 0.00 0.57 0.57 94 1012.1
20180821201645 77 115 0.0 3.0 0.00 0.57 0.57 94 1012.1
20180821201144 77 120 1.0 5.0 0.00 0.57 0.57 94 1012.2
20180821200644 78 28 1.0 5.0 0.00 0.57 0.57 94 1012.3
20180821200144 78 210 0.0 2.0 0.00 0.57 0.57 94 1012.5
20180821195646 78 207 0.0 2.0 0.00 0.57 0.57 95 1012.4
20180821195144 78 321 0.0 2.0 0.00 0.57 0.57 96 1012.5
20180821194646 77 310 0.0 2.0 0.00 0.57 0.57 96 1012.5
20180821194143 76 341 1.0 2.0 0.00 0.57 0.57 96 1012.6
20180821193643 76 119 0.0 2.0 0.00 0.57 0.57 96 1012.7
20180821193144 76 87 0.0 2.0 0.00 0.57 0.57 97 1012.7
20180821192645 76 86 0.0 2.0 0.00 0.57 0.57 96 1012.8
20180821192144 76 132 0.0 1.0 0.00 0.57 0.57 96 1012.9
20180821191645 76 201 0.0 2.0 0.00 0.57 0.57 97 1013.0
20180821191145 76 205 0.0 2.0 0.00 0.57 0.57 96 1013.2
20180821190644 76 275 0.0 2.0 0.00 0.57 0.57 97 1013.2
20180821190144 76 274 0.0 2.0 0.00 0.57 0.57 96 1013.3
20180821185645 76 101 0.0 2.0 0.00 0.57 0.57 97 1013.2
20180821185142 76 75 0.0 2.0 0.01 0.57 0.57 97 1013.3
20180821184643 76 86 0.0 2.0 0.01 0.57 0.57 98 1013.4
20180821184141 76 86 0.0 2.0 0.01 0.57 0.57 98 1013.5
20180821183642 75 56 0.0 2.0 0.01 0.57 0.57 98 1013.7
20180821183140 75 345 0.0 1.0 0.02 0.57 0.57 98 1013.8
20180821182641 75 75 0.0 1.0 0.02 0.57 0.57 98 1013.8
20180821182141 74 110 0.0 1.0 0.02 0.57 0.57 98 1013.8
20180821181642 73 109 0.0 1.0 0.02 0.57 0.57 98 1013.9
20180821181140 73 109 0.0 1.0 0.02 0.57 0.57 98 1014.0
20180821180641 73 113 0.0 1.0 0.02 0.57 0.57 97 1014.1
20180821180139 73 117 0.0 1.0 0.03 0.57 0.57 97 1014.2
20180821175641 72 117 0.0 1.0 0.08 0.57 0.57 97 1014.3
20180821175140 72 117 0.0 1.0 0.07 0.56 0.56 97 1014.4
20180821174641 72 117 0.0 1.0 0.08 0.56 0.56 97 1014.3
20180821174146 72 151 0.0 0.0 0.20 0.56 0.56 97 1014.5
20180821173637 72 151 0.0 0.0 0.29 0.56 0.56 97 1014.6
20180821173137 72 165 0.0 1.0 0.29 0.55 0.55 97 1014.7
20180821172638 72 166 0.0 1.0 0.29 0.55 0.55 97 1014.8
20180821172137 73 183 1.0 3.0 0.29 0.55 0.55 97 1015.0
20180821171638 73 195 1.0 3.0 0.29 0.55 0.55 96 1015.2
20180821171139 73 356 1.0 3.0 0.29 0.55 0.55 96 1015.6
20180821170639 73 269 1.0 2.0 0.29 0.55 0.55 95 1016.3
20180821170137 74 280 1.0 2.0 0.28 0.54 0.54 96 1016.2
20180821165637 74 307 1.0 3.0 0.23 0.49 0.50 96 1015.4
20180821165135 75 83 0.0 3.0 0.23 0.49 0.49 95 1014.8
20180821164635 76 172 0.0 1.0 0.22 0.48 0.48 96 1014.6
20180821164135 76 105 0.0 1.0 0.10 0.36 0.38 96 1014.7
20180821163635 77 54 0.0 0.0 0.01 0.27 0.27 96 1014.7
20180821163135 77 54 0.0 0.0 0.00 0.26 0.27 97 1014.6
20180821162636 77 70 0.0 0.0 0.00 0.26 0.26 97 1014.6
20180821162136 77 70 0.0 0.0 0.00 0.26 0.26 97 1014.7
20180821161635 76 70 0.0 0.0 0.00 0.26 0.26 97 1014.7
20180821161136 76 63 0.0 0.0 0.00 0.26 0.26 98 1014.8
20180821160634 76 63 0.0 0.0 0.01 0.26 0.26 98 1014.9
20180821160134 76 65 0.0 0.0 0.02 0.26 0.26 97 1014.9
20180821155633 75 65 0.0 0.0 0.03 0.26 0.26 97 1015.1
20180821155133 75 65 0.0 0.0 0.04 0.26 0.26 97 1015.1
20180821154635 75 65 0.0 0.0 0.04 0.26 0.26 97 1015.1
20180821154135 75 65 0.0 0.0 0.04 0.26 0.26 97 1015.2
20180821153633 75 65 0.0 0.0 0.04 0.26 0.26 97 1015.4
20180821153134 75 65 0.0 0.0 0.05 0.26 0.26 97 1015.4
20180821152633 75 65 0.0 0.0 0.05 0.26 0.26 97 1015.4
20180821152135 75 65 0.0 0.0 0.05 0.26 0.26 97 1015.4
20180821151633 75 328 0.0 0.0 0.05 0.26 0.26 97 1015.4
20180821151135 74 328 0.0 0.0 0.05 0.26 0.26 97 1015.6
20180821150631 74 328 0.0 0.0 0.04 0.25 0.25 97 1015.7
20180821150131 74 328 0.0 0.0 0.04 0.24 0.24 97 1015.7
20180821145631 74 328 0.0 0.0 0.03 0.23 0.23 97 1015.7
20180821145131 74 328 0.0 0.0 0.02 0.22 0.22 97 1015.8
20180821144631 74 328 0.0 0.0 0.02 0.22 0.22 97 1015.9
20180821144131 74 328 0.0 0.0 0.02 0.22 0.22 97 1016.0
20180821143633 74 328 0.0 0.0 0.02 0.22 0.22 96 1016.1
20180821143131 74 328 0.0 0.0 0.02 0.21 0.21 96 1016.2
20180821142631 73 328 0.0 0.0 0.18 0.21 0.21 96 1016.3
20180821142132 73 328 0.0 0.0 0.20 0.21 0.21 96 1016.3
20180821141632 73 328 0.0 0.0 0.21 0.21 0.21 96 1016.4
20180821141129 73 79 0.0 0.0 0.21 0.21 0.21 96 1016.3
20180821140628 73 79 0.0 0.0 0.21 0.21 0.21 96 1016.3
20180821140129 73 15 0.0 0.0 0.20 0.20 0.20 96 1016.3
20180821135630 73 15 0.0 0.0 0.20 0.20 0.20 96 1016.3
20180821135130 73 15 0.0 1.0 0.20 0.20 0.20 95 1016.3
20180821134629 73 15 0.0 1.0 0.20 0.20 0.20 95 1016.3
20180821134130 73 15 0.0 0.0 0.20 0.20 0.20 95 1016.4
20180821133629 73 15 0.0 1.0 0.20 0.20 0.20 94 1016.4
20180821133129 74 15 0.0 1.0 0.19 0.19 0.20 94 1016.4
20180821132626 74 61 0.0 1.0 0.03 0.03 0.04 94 1016.6
20180821132128 74 61 0.0 1.0 0.01 0.01 0.02 93 1016.5
20180821131627 74 240 0.0 1.0 0.00 0.00 0.00 93 1016.6
20180821131128 74 240 0.0 1.0 0.00 0.00 0.00 93 1016.6
20180821130628 74 250 0.0 1.0 0.00 0.00 0.00 93 1016.6
20180821130127 74 250 0.0 0.0 0.00 0.00 0.00 93 1016.7
20180821125628 74 250 0.0 1.0 0.00 0.00 0.00 92 1016.7
20180821125127 74 251 0.0 1.0 0.00 0.00 0.00 92 1016.7
20180821124627 74 23 0.0 2.0 0.00 0.00 0.00 92 1016.6
20180821124128 74 23 0.0 2.0 0.00 0.00 0.00 92 1016.7
20180821123628 74 91 0.0 1.0 0.00 0.00 0.00 92 1016.7
20180821123126 74 97 0.0 1.0 0.00 0.00 0.00 93 1016.7
20180821122626 74 82 0.0 1.0 0.00 0.00 0.00 93 1016.7
20180821122125 73 82 0.0 1.0 0.00 0.00 0.00 93 1016.8
20180821121624 73 314 0.0 1.0 0.00 0.00 0.00 93 1016.8
20180821121124 73 86 0.0 0.0 0.00 0.00 0.00 93 1016.7
20180821120626 73 86 0.0 2.0 0.00 0.00 0.00 93 1016.8
20180821120125 73 86 0.0 2.0 0.00 0.00 0.00 93 1016.8
20180821115626 73 27 0.0 1.0 0.00 0.00 0.00 93 1016.8
20180821115123 73 291 0.0 1.0 0.00 0.00 0.00 93 1016.8
20180821114623 73 288 0.0 1.0 0.00 0.00 0.00 93 1017.1
20180821114122 73 289 0.0 2.0 0.00 0.00 0.00 93 1017.1
20180821113621 73 288 0.0 2.0 0.00 0.00 0.00 93 1017.0
20180821113124 73 300 0.0 2.0 0.00 0.00 0.00 93 1016.8
20180821112621 73 293 0.0 0.0 0.00 0.00 0.00 93 1017.0
20180821112121 73 353 0.0 0.0 0.00 0.00 0.00 93 1017.0
20180821111621 73 353 0.0 0.0 0.00 0.00 0.00 93 1016.8
20180821111121 73 353 0.0 0.0 0.00 0.00 0.00 93 1016.8
20180821110620 72 353 0.0 0.0 0.00 0.00 0.00 93 1016.7
20180821110122 72 335 0.0 1.0 0.00 0.00 0.00 93 1016.7
20180821105621 72 79 0.0 2.0 0.00 0.00 0.00 93 1016.6
20180821105121 72 79 0.0 2.0 0.00 0.00 0.00 93 1016.6
20180821104622 72 94 0.0 1.0 0.00 0.00 0.00 93 1016.7
20180821104122 72 280 0.0 0.0 0.00 0.00 0.00 93 1016.8
20180821103620 72 280 0.0 0.0 0.00 0.00 0.00 93 1016.8
20180821103121 72 280 0.0 0.0 0.00 0.00 0.00 93 1016.8
20180821102620 72 280 0.0 0.0 0.00 0.00 0.00 93 1017.0
20180821102121 72 280 0.0 0.0 0.00 0.00 0.00 93 1017.1
20180821101624 72 280 0.0 0.0 0.00 0.00 0.00 93 1017.2
20180821101122 72 280 0.0 1.0 0.00 0.00 0.00 93 1017.3
20180821100622 72 280 0.0 1.0 0.00 0.01 0.00 93 1017.2
20180821100120 72 280 0.0 0.0 0.00 0.01 0.00 93 1017.1
20180821095619 72 280 0.0 1.0 0.00 0.01 0.00 93 1017.1
20180821095119 72 280 0.0 1.0 0.00 0.01 0.00 93 1017.0
20180821094619 72 314 0.0 2.0 0.00 0.01 0.00 93 1017.0
20180821094119 72 281 0.0 2.0 0.00 0.01 0.00 93 1017.0
20180821093621 72 21 0.0 1.0 0.00 0.01 0.00 93 1016.8
20180821093119 72 21 0.0 1.0 0.00 0.01 0.00 92 1016.8
20180821092620 72 337 0.0 1.0 0.00 0.01 0.00 92 1016.8
20180821092120 72 4 0.0 1.0 0.00 0.01 0.00 92 1016.8
20180821091617 72 4 0.0 1.0 0.00 0.01 0.00 92 1016.8
20180821091116 72 314 0.0 1.0 0.00 0.01 0.00 92 1017.0
20180821090617 72 313 0.0 2.0 0.00 0.01 0.00 92 1017.0
20180821090116 72 78 0.0 2.0 0.00 0.01 0.00 92 1017.0
20180821085616 72 289 0.0 1.0 0.00 0.01 0.00 92 1017.1
20180821085113 72 288 0.0 1.0 0.00 0.01 0.00 92 1017.1
20180821084614 72 290 0.0 1.0 0.00 0.01 0.00 92 1017.1
20180821084113 72 77 0.0 1.0 0.00 0.01 0.00 92 1017.1
20180821083614 72 77 0.0 1.0 0.00 0.01 0.00 92 1017.2
20180821083112 72 77 0.0 0.0 0.00 0.01 0.00 92 1017.3
20180821082614 72 77 0.0 0.0 0.00 0.01 0.00 92 1017.3
20180821082112 72 77 0.0 0.0 0.00 0.01 0.00 92 1017.4
20180821081614 72 77 0.0 1.0 0.00 0.01 0.00 92 1017.4
20180821081112 72 77 0.0 1.0 0.00 0.01 0.00 92 1017.4
20180821080614 72 77 0.0 1.0 0.00 0.01 0.00 92 1017.4
20180821080112 72 77 0.0 1.0 0.00 0.01 0.00 92 1017.4
20180821075614 72 77 0.0 1.0 0.00 0.01 0.00 92 1017.6
20180821075112 72 77 0.0 1.0 0.00 0.01 0.00 92 1017.5
20180821074614 72 77 0.0 2.0 0.00 0.01 0.00 92 1017.4
20180821074113 72 14 0.0 2.0 0.00 0.01 0.00 92 1017.6
20180821073614 72 82 0.0 0.0 0.00 0.01 0.00 92 1017.6
20180821073113 72 68 0.0 0.0 0.00 0.01 0.00 92 1017.6
20180821072613 72 68 0.0 0.0 0.00 0.01 0.00 92 1017.7
20180821072112 72 50 0.0 1.0 0.00 0.01 0.00 92 1017.8
20180821071614 72 50 0.0 1.0 0.00 0.01 0.00 92 1017.9
20180821071113 72 49 0.0 2.0 0.00 0.01 0.00 92 1017.9
20180821070614 72 36 0.0 2.0 0.00 0.01 0.00 92 1018.0
20180821070112 72 328 0.0 2.0 0.00 0.01 0.00 92 1018.0
20180821065614 72 288 0.0 2.0 0.00 0.01 0.00 92 1018.1
20180821065112 72 224 0.0 2.0 0.00 0.01 0.00 92 1018.1
20180821064614 72 65 0.0 1.0 0.00 0.01 0.00 92 1018.1
20180821064111 72 65 0.0 1.0 0.00 0.01 0.00 92 1018.2
20180821063610 72 65 0.0 1.0 0.00 0.01 0.00 92 1018.2
20180821063110 72 65 0.0 1.0 0.00 0.01 0.00 92 1018.3
20180821062611 72 49 0.0 1.0 0.00 0.01 0.00 92 1018.3
20180821062111 72 95 0.0 2.0 0.00 0.01 0.00 93 1018.3
20180821061611 72 84 0.0 2.0 0.00 0.01 0.00 93 1018.3
20180821061109 72 84 0.0 1.0 0.00 0.01 0.00 93 1018.3
20180821060612 72 264 0.0 2.0 0.00 0.01 0.00 93 1018.4
20180821060109 72 94 0.0 2.0 0.00 0.01 0.00 93 1018.4
20180821055608 72 104 0.0 0.0 0.00 0.01 0.00 93 1018.5
20180821055109 72 104 0.0 0.0 0.00 0.01 0.00 93 1018.5
20180821054608 72 104 0.0 1.0 0.00 0.01 0.00 92 1018.6
20180821054109 72 104 0.0 1.0 0.00 0.01 0.00 92 1018.6
20180821053610 72 104 0.0 2.0 0.00 0.01 0.00 92 1018.6
20180821053108 72 45 0.0 2.0 0.00 0.01 0.00 92 1018.6
20180821052609 72 89 0.0 1.0 0.00 0.01 0.00 92 1018.7
20180821052106 73 84 0.0 2.0 0.00 0.01 0.00 91 1018.6
20180821051606 73 285 0.0 2.0 0.00 0.01 0.00 91 1018.7
20180821051106 73 271 0.0 1.0 0.00 0.01 0.00 91 1018.7
20180821050608 73 262 0.0 2.0 0.00 0.01 0.00 91 1018.8
20180821050108 73 262 0.0 2.0 0.00 0.01 0.00 90 1019.0
20180821045608 73 86 0.0 2.0 0.00 0.01 0.00 90 1019.0
20180821045107 73 254 0.0 2.0 0.00 0.01 0.00 90 1019.0
20180821044607 73 87 0.0 1.0 0.00 0.01 0.00 90 1019.0
20180821044105 73 8 0.0 1.0 0.00 0.01 0.00 90 1019.1
20180821043605 73 34 0.0 2.0 0.00 0.01 0.00 90 1019.0
20180821043104 73 34 0.0 2.0 0.00 0.01 0.00 90 1018.9
20180821042604 73 94 1.0 3.0 0.00 0.01 0.00 90 1018.9
20180821042105 73 62 1.0 3.0 0.00 0.01 0.00 90 1019.0
20180821041605 73 63 0.0 3.0 0.00 0.01 0.00 90 1019.1
20180821041104 73 117 1.0 2.0 0.00 0.01 0.00 90 1019.1
20180821040603 73 87 0.0 2.0 0.00 0.01 0.00 90 1019.2
20180821040104 73 82 0.0 2.0 0.00 0.01 0.00 91 1019.2
20180821035602 73 105 0.0 2.0 0.00 0.01 0.01 91 1019.4
20180821035102 73 68 0.0 2.0 0.00 0.01 0.01 91 1019.3
20180821034603 73 76 0.0 1.0 0.00 0.01 0.01 91 1019.3
20180821034102 73 76 0.0 2.0 0.00 0.01 0.01 91 1019.4
20180821033603 73 76 0.0 2.0 0.00 0.01 0.01 91 1019.4
20180821033103 73 297 0.0 1.0 0.00 0.01 0.01 91 1019.5
20180821032602 73 296 0.0 2.0 0.00 0.01 0.01 91 1019.5
20180821032100 73 339 0.0 2.0 0.00 0.01 0.01 91 1019.5
20180821031600 73 49 0.0 1.0 0.00 0.01 0.01 91 1019.5
20180821031102 73 4 0.0 1.0 0.00 0.01 0.01 92 1019.5
20180821030602 73 317 0.0 0.0 0.00 0.01 0.01 92 1019.4
20180821030101 73 316 0.0 0.0 0.00 0.01 0.01 92 1019.4
20180821025602 73 316 0.0 1.0 0.00 0.01 0.01 92 1019.4
20180821025102 73 77 0.0 1.0 0.00 0.01 0.01 91 1019.4
20180821024600 73 77 0.0 1.0 0.00 0.01 0.01 91 1019.4
20180821024100 73 77 0.0 1.0 0.00 0.01 0.01 91 1019.3
20180821023601 73 77 0.0 1.0 0.00 0.01 0.01 91 1019.3
20180821023059 73 77 0.0 0.0 0.00 0.01 0.01 91 1019.3
20180821022559 74 77 0.0 1.0 0.00 0.01 0.01 91 1019.3
20180821022059 73 77 0.0 1.0 0.00 0.01 0.01 91 1019.3
20180821021558 74 77 0.0 1.0 0.00 0.01 0.01 91 1019.3
20180821021057 74 77 0.0 1.0 0.00 0.01 0.01 91 1019.2
20180821020556 74 77 0.0 1.0 0.00 0.01 0.01 91 1019.3
20180821020056 74 277 0.0 1.0 0.00 0.01 0.01 91 1019.3
20180821015555 74 277 0.0 1.0 0.00 0.01 0.01 91 1019.3